Regional Weather Roundup
Issued by NWS

Home | Current Version | Previous Version | Text Only | Print | Product List | Glossary On
Versions: 1 2 3 4 5 6 7 8 9 10 11 12 13 14 15 16 17 18 19 20 21 22 23 24 25 26 27 28 29 30 31 32 33 34 35 36 37 38 39 40 41 42 43 44 45 46 47 48 49 50
711
ASUS44 KLIX 262205
RWRLA
LOUISIANA WEATHER ROUNDUP
NATIONAL WEATHER SERVICE NEW ORLEANS LA
400 PM CST WED NOV 26 2014

NOTE: "FAIR" INDICATES FEW OR NO CLOUDS BELOW 12,000 FEET WITH NO
      SIGNIFICANT WEATHER AND/OR OBSTRUCTIONS TO VISIBILITY.
      SKY/WX - SKY CONDITION AND SIGNIFICANT WEATHER.
      TMP - AIR TEMPERATURE.    DP   - DEWPOINT TEMPERATURE.
      RH  - RELATIVE HUMIDITY.  PRES - PRESSURE.
      HX  - HEAT INDEX.         WCI  - WIND CHILL INDEX.

*  THESE STATIONS ARE NOT NWS OR FAA STATIONS AND ARE NOT UNDER
   NWS QUALITY CONTROL.

LAZ040-048-061>063-065-066-069-262300-
SOUTHEAST LOUISIANA

CITY           SKY/WX    TMP DP  RH WIND       PRES   REMARKS
N.O. AUDUBON     N/A     64  41  42 MISG        N/A
N.O. INTL ARPT MOSUNNY   68  34  28 SW17G24   30.17F
N.O. LAKEFRONT SUNNY     67  38  34 SW15      30.17F
N.O. DOWNTOWN* FAIR      64  37  36 S9G16     30.18F
SLIDELL        SUNNY     64  37  36 SW7       30.16F
BATON ROUGE    SUNNY     68  33  27 W16       30.16R
BOOTHVILLE     SUNNY     62  45  53 SW9       30.23S
BELLE CHASSE   SUNNY     65  36  34 SW18      30.18S
BOGALUSA*        N/A     66  35  32 SW10      30.16S
NEW ROADS*     FAIR      67  39  35 W13G20    30.16S
GONZALES*      FAIR      68  40  35 SW9       30.17R
HAMMOND*       SUNNY     68  34  28 SW9       30.17R
HOUMA*         NOT AVBL
PORT FOURCHON* CLEAR     64  45  48 W10       30.25S

$$

LAZ041-044-053-054-262300-
SOUTHWEST LOUISIANA

CITY           SKY/WX    TMP DP  RH WIND       PRES   REMARKS
LAKE CHARLES   SUNNY     67  47  48 SW12      30.18R
LAFAYETTE      SUNNY     67  40  37 SW14G23   30.19R
PATTERSON      SUNNY     66  45  45 W17G23    30.22S
SALT POINT       N/A     66  54  65 SW5       30.20S
NEW IBERIA     SUNNY     67  39  35 SW14G24   30.20R
CHENAULT AIRPK SUNNY     68  45  42 SW16      30.18R

$$

LAZ027-028-262300-
CENTRAL LOUISIANA

CITY           SKY/WX    TMP DP  RH WIND       PRES   REMARKS
FORT POLK      SUNNY     67  37  32 W12       30.14R
ALEXANDRIA INT SUNNY     67  39  35 W10       30.13R
ALEXANDRIA     SUNNY     69  36  29 W15G24    30.13R

$$

LAZ001-002-262300-
NORTHWEST LOUISIANA

CITY           SKY/WX    TMP DP  RH WIND       PRES   REMARKS
SHREVEPORT     MOSUNNY   67  30  25 W15       30.13R
BARKSDALE AFB  SUNNY     67  30  25 W15       30.13R
DTN SHREVEPORT SUNNY     66  28  24 W10       30.14R

$$

LAZ014-016-262300-
NORTHEAST LOUISIANA

CITY           SKY/WX    TMP DP  RH WIND       PRES   REMARKS
MONROE         SUNNY     67  32  27 W18       30.09R
TALLULAH       SUNNY     67  35  30 W9G20     30.09R

$$




USA.gov is the U.S. government's official web portal to all federal, state and local government web resources and services.